星链-36197(STARLINK-36197)

导读

STARLINK-36197是美国SpaceX星链星座的卫星,于2025年12月17日发射升空,隶属于低轨卫星互联网组网项目。星链系统旨在为全球提供高速宽带互联网服务,该卫星承担组网补网、扩容星座覆盖范围的任务,进一步完善星链星座的全球覆盖能力与通信服务容量。

Basic Information
目录编号:
67205
目录名称:
STARLINK-36197
国际标识:
2025-304P
轨道中心:
EARTH
卫星名称:
星链-36197
卫星全名:
星链-36197(STARLINK-36197)
卫星状态:
在轨 (已飞行270 天)
发射日期:
2025-12-17 UTC
国别 :
美国 (US)
星等 :
--
This satellite is enrolled in the Space Conjunction Data Service (SCDS) and the current flight risk assessment level is: No High Risk
Orbit Information
数据来源 国际轨道数据 AOE轨道数据
星历时间 2026-09-13T06:04:52+0800
11小时前
查看轨道信息
2026-09-10T02:00:00+0800
3天前
查看轨道信息
半长轴 6950.212km 6950.202km
偏心率 0.0002884 0.0002628
轨道倾角 70.000° 70.002°
近地点辐角 272.660° 275.002°
升交点赤经 62.231° 70.222°
平近点角 87.423° 270.810°
近地点 570.07km 570.238km
远地点 574.08km 573.892km
周期 96.107分钟 96.107分钟
每日圈数 14.983239 14.983271
Detailed Information
固有亮度:
5
最大亮度:
2.5
卫星平台:
Starlink V1.0
覆盖范围:
全球
运营商:
太空探索技术公司
运营商所在国:
美国
制造商(研发单位):
太空探索技术公司
制造商所在国:
美国
使用方式:
暂无
Satellite Introduction
Starlink 计划是 SpaceX 推出的全球卫星互联网项目,通过发射低轨道卫星,为全球尤其是偏远地区提供高速、低延迟的互联网服务。自 2019 年起,Starlink 已部署数千颗卫星,旨在缩小全球数字鸿沟,推动互联网普及。该项目还为军事、航空等行业提供通信支持,带来广泛经济效益。
2D Orbit Map
3D Orbit Map
Orbit Altitude Analysis Chart
Orbit Inclination Analysis Chart
Orbit Comprehensive Analysis Chart
View Comprehensive Chart
Conjunction Data List
Event ID Objects TCA Miss Dist (km) Collision Risk Probability Collision Risk Index (CRI) Action
CDM_260914-183406-678606-720522
2026-09-14T
18:34:17+0000
1.145 km
极远距离
1.384575E-5 中风险 0.58
CDM_260915-182903-718006-720521
2026-09-15T
18:29:41+0000
1.562 km
极远距离
5.816482E-6 低风险 0.5
CDM_260914-193103-722306-720521
2026-09-14T
19:31:04+0000
2.619 km
极远距离
1.52384E-6 低风险 0.39
Miss Distance Evolution Trend with All Objects
Collision Probability Evolution Trend with All Objects